CZ-3C DEB, 40196

Orbit data source: Space-Track

CZ-3C DEB, 40196 is space debris in HEO originally from a launch on Fri, 24 Feb 2012 UTC launched from the Xichang Space Center, China (XSC). Debris objects in space refer to the collection of defunct objects orbiting the Earth. Examples of debris include non-operational satellites, rocket bodies, and fragments generated from explosions, collisions, or faulty payload assembly.

Loading next visibility...
Identifier
40196, 2012-008F
Orbit
HEO
Country
Flag of CNCN / PRC
Related business
Manufacturer
CALT
Mission
Spacecraft
Bus & Motor
Unknown
Mass
Unknown
Launch date (UTC)
2012-02-24 (14 years ago)
Launch vehicle
Unknown
Launch site
Xichang Space Center, China (XSC)
Object type
Payload
Rocket body
Debris
Shape & HBR
Unknown shape, 0.2 m
Radar Cross Section
Medium (>0.1 m² and <1 m²)

Expand to show TLE details & history
Last TLE update: 5 days ago

TLE from 5 days ago
0 CZ-3C DEB
1 40196U 12008F   26187.26702823  .00000034  00000-0  23467-3 0  9997
2 40196  21.2977 207.7602 7074769 106.1296 336.6091  2.38483852109561
Epoch: 2026-07-06T06:24Z
TLE epoch observation values (Epoch: 2026-07-06T06:24:31.239Z)
Latitude
-0.00001°
Longitude
-172.54789°
Altitude
8,285.14 km
Speed
6.125 km/s
True Right ascension
13h 51m 20s
True Declination
0° 00' 00"
Sunlit
Object was in daylight at epoch
Visualization orbit readout
Latitude
Unknown
Longitude
Unknown
Altitude
Unknown
Speed
Unknown
Apparent Right ascension
Unknown
Apparent Declination
Unknown
Sunlit
N/A
Visualization observer readout
Local Sidereal Time
03:23:28
Azimuth
Unknown
Elevation
Unknown
Doppler factor
Unknown
Orbital elements
Apogee altitude
34,035.559 km
Perigee altitude
545.494 km
Semi-major axis
23,668.664 km
Eccentricity
0.70748
Inclination
21.2977°
RAAN
207.7602°
Arg. of periapsis
106.1296°
True anomaly
253.92222°
Mean anomaly
336.6091°
Eccentric anomaly
302.37407°
Mean motion
0.59605 °/min
Orbital period
603.98 mins
BSTAR
0.00023467
Loading maneuver chart data...
Computing Atmospheric mass density...
Loading historical data...
Loading historical data...
Loading historical data...
Loading historical data...
Loading historical data...
Loading historical data...
Loading historical data...

Documentation

Showing up to 5 results
|